Pocatello, ID

1:03 AM MST on December 11, 2017 (GMT -0700)
Pocatello Regional

Weather History for KPIH - December, 2012

Change the Weather History Date:

Thursday, December 6, 2012

  Actual Average Record
Temperature  
Mean Temperature 39 °F 26 °F  
Max Temperature 44 °F 34 °F 57 °F (1981)
Min Temperature 34 °F 17 °F -12 °F (1972)
Degree Days  
Heating Degree Days 26 39  
Month to date heating degree days 137 231  
Since 1 July heating degree days 1588 1959  
Cooling Degree Days 0 0  
Month to date cooling degree days 0 0  
Year to date cooling degree days 560 392  
Moisture  
Dew Point 35 °F    
Average Humidity 83    
Maximum Humidity 89    
Minimum Humidity 76    
Precipitation  
Precipitation 0.01 in 0.05 in 0.45 in (1971)
Month to date precipitation 0.58 0.26  
Year to date precipitation 9.87 11.15  
Snow  
Snow 0.00 in - - ()
Month to date snowfall 0.0  
Since 1 July snowfall 7.1  
Snow Depth 0.00 in    
Sea Level Pressure  
Sea Level Pressure 30.02 in    
Wind  
Wind Speed 14 mph (SW)    
Max Wind Speed 24 mph    
Max Gust Speed 31 mph    
Visibility 10 miles    
Events Rain    
T = Trace of Precipitation, MM = Missing Value Source: NWS Daily Summary

Daily Weather History Graph

Daily Weather History Graph

Search for Another Location

Airport or City:

Trip Planner

Search our weather history database for the weather conditions in past years. The results will help you decide how hot, cold, wet, or windy it might be!

Date:

Astronomy

Dec. 06, 2012 Rise Set
Actual Time 7:47 AM MST 4:55 PM MST
Civil Twilight 7:15 AM MST 5:27 PM MST
Nautical Twilight 6:39 AM MST 6:03 PM MST
Astronomical Twilight 6:05 AM MST 6:37 PM MST
Moon No Moon Rise 12:33 PM MST (12/6)
Length of Visible Light 10h 12m
Length of Day
9h 08m
Waning Gibbous, 48% of the Moon is Illuminated
Dec 6
Waning Gibbous
Dec 13
New
Dec 19
First Quarter
Dec 28
Full
Jan 4
Last Quarter

Hourly Weather History & Observations

Time (MST) Temp. Windchill Dew Point Humidity Pressure Visibility Wind Dir Wind Speed Gust Speed Precip Events Conditions
12:53 AM 41.0 °F 34.7 °F 36.0 °F 82% 30.06 in 10.0 mi SSW 10.4 mph - N/A   Mostly Cloudy
1:53 AM 39.0 °F 34.8 °F 35.1 °F 86% 30.06 in 10.0 mi SSW 5.8 mph - N/A   Partly Cloudy
2:53 AM 41.0 °F 35.2 °F 36.0 °F 82% 30.05 in 10.0 mi SSW 9.2 mph - N/A   Mostly Cloudy
3:53 AM 41.0 °F 35.2 °F 36.0 °F 82% 30.05 in 10.0 mi SSW 9.2 mph - N/A   Overcast
4:53 AM 39.9 °F 32.9 °F 35.1 °F 83% 30.05 in 10.0 mi SSW 11.5 mph - N/A   Partly Cloudy
5:53 AM 39.9 °F 33.4 °F 35.1 °F 83% 30.04 in 10.0 mi SSW 10.4 mph - N/A   Mostly Cloudy
6:53 AM 41.0 °F 35.2 °F 36.0 °F 82% 30.04 in 10.0 mi SSW 9.2 mph - N/A   Overcast
7:53 AM 41.0 °F 35.2 °F 35.1 °F 79% 30.05 in 10.0 mi SSW 9.2 mph - N/A   Mostly Cloudy
8:53 AM 41.0 °F 34.7 °F 36.0 °F 82% 30.05 in 10.0 mi SSW 10.4 mph - N/A   Mostly Cloudy
9:53 AM 41.0 °F 33.9 °F 37.0 °F 86% 30.05 in 10.0 mi SW 12.7 mph - N/A   Mostly Cloudy
10:53 AM 42.1 °F 34.9 °F 37.9 °F 85% 30.06 in 10.0 mi WSW 13.8 mph - N/A   Mostly Cloudy
11:53 AM 43.0 °F 37.2 °F 39.0 °F 86% 30.03 in 10.0 mi WSW 10.4 mph - N/A   Mostly Cloudy
12:53 PM 43.0 °F 36.0 °F 37.9 °F 82% 30.01 in 10.0 mi WSW 13.8 mph - N/A   Mostly Cloudy
1:53 PM 44.1 °F 37.1 °F 37.0 °F 76% 29.99 in 10.0 mi WSW 15.0 mph - N/A   Mostly Cloudy
2:53 PM 44.1 °F 36.8 °F 37.0 °F 76% 29.95 in 10.0 mi SW 16.1 mph - N/A   Overcast
3:53 PM 42.1 °F 35.7 °F 37.0 °F 82% 29.96 in 10.0 mi WSW 11.5 mph - N/A   Overcast
4:53 PM 39.9 °F 32.1 °F 35.1 °F 83% 29.98 in 10.0 mi WSW 13.8 mph - 0.00 in Rain Light Rain
5:53 PM 39.0 °F 30.6 °F 34.0 °F 82% 29.98 in 10.0 mi SSW 15.0 mph - 0.01 in   Mostly Cloudy
6:53 PM 37.4 °F 27.5 °F 33.8 °F 87% 29.96 in 10.0 mi SW 18.4 mph - N/A   Clear
7:53 PM 36.0 °F 25.6 °F 32.0 °F 86% 29.98 in 10.0 mi SW 18.4 mph - N/A   Clear
8:53 PM 36.0 °F 24.2 °F 32.0 °F 86% 30.00 in 10.0 mi SW 24.2 mph - N/A   Scattered Clouds
9:53 PM 35.1 °F 24.1 °F 30.9 °F 85% 30.02 in 10.0 mi SW 19.6 mph - N/A   Clear
10:53 PM 34.0 °F 23.0 °F 28.9 °F 82% 30.02 in 10.0 mi WSW 18.4 mph 27.6 mph N/A   Clear
11:53 PM 34.0 °F 23.0 °F 28.9 °F 82% 30.04 in 10.0 mi SW 18.4 mph 25.3 mph N/A   Clear